{"data":{"norad_id":66271,"epoch":"2026-09-20T12:06:35.959104Z","epoch_age_seconds":96224,"freshness":"FRESH","line1":"1 66271U 25247G   26263.50458286  .00020821  00000+0  62553-3 0  9995","line2":"2 66271  53.1596   3.5054 0001532  39.3963 320.7151 15.34406148 50958","mean_motion":15.34406148,"eccentricity":0.0001532,"inclination_deg":53.1596,"raan_deg":3.5054,"arg_perigee_deg":39.3963,"mean_anomaly_deg":320.7151,"bstar":0.00062553,"rev_number":5095,"period_min":93.847382055719,"perigee_km":461.63695319112,"apogee_km":463.73298104185,"semimajor_km":6840.8219671165,"source":"CELESTRAK","updated_at":"2026-09-21T09:00:35.867834Z"}}